Weather Roundup
Issued by NWS

Home | Current Version | Previous Version | Text Only | Print | Product List | Glossary On
Versions: 1 2 3 4 5 6 7 8 9 10 11 12 13 14 15 16 17 18 19 20 21 22 23 24 25 26 27 28 29 30 31 32 33 34 35 36 37 38 39 40 41 42 43 44 45 46 47 48 49 50
988
NZUS93 KARX 101310
HRRWXR

CURRENT HOURLY OBSERVATIONS ACROSS
MUCH OF THE UPPER MISSISSIPPI VALLEY
NATIONAL WEATHER SERVICE LA CROSSE WI
700 AM CST MON DEC 10 2018


...SOUTHEAST MINNESOTA...


CITY           SKY/WX    TMP DP  RH WIND       PRES   REMARKS
ROCHESTER      FOG       15  14  95 W12       30.20S VSB 1/2 WCI   2
ROCHESTER/MAYO CLOUDY    17  16  98 W3        30.21F VSB 3/4
WINONA         CLOUDY    18  16  93 SW6       30.25S FOG     WCI   9
AUSTIN         FOG       18  16  93 SW7       30.21F VSB 3/4 WCI   8
ALBERT LEA     CLOUDY    18  18 100 SW7       30.20F WCI   8
DODGE CENTER   FOG       16  14  93 SW7       30.18F VSB 1/4 WCI   6
PRESTON        FOG       15  13  91 W7        30.22R VSB 1/4 WCI   5
OWATONNA       FOG       18  16  93 SW5       30.20F VSB 1/2 WCI  11
FARIBAULT      NOT AVBL
$$

...ELSEWHERE IN MINNESOTA...


CITY           SKY/WX    TMP DP  RH WIND       PRES   REMARKS
MINNEAPOLIS    FOG       18  18 100 SW9       30.18F VSB 1   WCI   7
INTNL FALLS    FAIR      10   8  92 SW5       29.95F WCI   2
DULUTH         FAIR      18  13  80 W10       30.02R WCI   6
RED WING       CLOUDY    14  10  85 CALM      30.22S FOG
REDWOOD FALLS  CLOUDY    14  12  92 S8        30.17F WCI   3
MANKATO        MIX PCPN  19  18  95 SW8       30.20F FOG     WCI   9
WORTHINGTON    LGT SNOW  16  15  96 SW14      30.17F VSB 3/4 WCI   2
FAIRMONT       CLOUDY    19  18  95 SW13      30.22S FOG     WCI   6
$$

...SOUTHWEST WISCONSIN...


CITY           SKY/WX    TMP DP  RH WIND       PRES   REMARKS
LA CROSSE      CLOUDY    19  14  81 SW6       30.25R HAZE    WCI  11
PRAIRIE DU CHI FAIR      14  11  87 CALM      30.27R
BOSCOBEL       FAIR      13   9  84 SW3       30.26S FOG
LONE ROCK      FAIR      11   7  84 CALM      30.25S
PLATTEVILLE    FAIR      16  16 100 SW5       30.25S WCI   9
FORT MC COY    CLOUDY    15  14  95 CALM      30.23R FOG
CAMP DOUGLAS   CLOUDY    12  12 100 CALM      30.21R FOG
MAUSTON-NEW LI CLOUDY    15  13  92 CALM      30.21R FOG
VIROQUA        CLOUDY    17  17 100 SW3       30.20S VSB 1/4
WIS DELLS      FAIR      17  16  95 SW5       30.21S FOG     WCI  10
$$

...ELSEWHERE IN WISCONSIN...


CITY           SKY/WX    TMP DP  RH WIND       PRES   REMARKS
MILWAUKEE      FAIR      21  15  78 VRB5      30.25R HAZE    WCI  15
MADISON        FAIR      16  12  84 CALM      30.23S FOG
GREEN BAY      FAIR      17  13  84 SW8       30.19F WCI   7
EAU CLAIRE     CLOUDY    16  14  92 SW7       30.18F FOG     WCI   6
BLACK RVR FLS  CLOUDY    18  18 100 W3        30.22R FOG
MEDFORD        FOG       13  12  92 W5        30.13S VSB 1/2 WCI   6
WAUSAU         SNOW      16  14  92 W7        30.13F VSB 1/2 WCI   6
WIS RAPIDS     CLOUDY    15  10  80 W5        30.20S HAZE    WCI   8
MARSHFIELD     CLOUDY    15  13  91 W10       30.15S WCI   2
RICE LAKE      CLOUDY    11  10  94 CALM      30.16S FOG
$$

...NORTHEAST IOWA...


CITY           SKY/WX    TMP DP  RH WIND       PRES   REMARKS
WATERLOO       FAIR      11   8  88 NW5       30.27R FOG     WCI   3
DUBUQUE        FAIR      16  13  88 SW7       30.24S FOG     WCI   6
DECORAH        CLOUDY    14  14 100 VRB7      30.22F FOG     WCI   4
MASON CITY     FOG       20  19  96 W10       30.25S VSB 1   WCI   9
CHARLES CITY   CLOUDY    18  18 100 W8        30.25S FOG     WCI   7
OELWEIN        NOT AVBL
$$

...ELSEWHERE IN IOWA...


CITY           SKY/WX    TMP DP  RH WIND       PRES   REMARKS
DES MOINES     PTCLDY    15  13  91 CALM      30.29S FOG
IOWA CITY      FAIR      14  11  87 CALM      30.31S FOG
FORT DODGE     CLOUDY    18  18 100 W8        30.27S FOG     WCI   7
MARSHALLTOWN   CLOUDY    13  11  92 W3        30.26S FOG
CEDAR RAPIDS   FAIR     N/A N/A N/A SW5       30.27R FOG
$$

...NORTHERN ILLINOIS...


CITY           SKY/WX    TMP DP  RH WIND       PRES   REMARKS
CHICAGO-OHARE  FAIR      17  13  84 SW3       30.27S
CHICAGO-MIDWAY FAIR      18  13  80 SW3       30.29R
MOLINE         FAIR      15  12  88 CALM      30.30R FOG
ROCKFORD       FOG       16  12  84 S5        30.30R VSB 1/4 WCI   9
PEORIA         FAIR      14  10  84 CALM      30.32R FOG
$$

NOTE: "FAIR" INDICATES FEW OR NO CLOUDS BELOW 12,000 FEET WITH NO
SIGNIFICANT WEATHER AND/OR OBSTRUCTIONS TO VISIBILITY. WIND
SPEEDS ARE IN MILES-PER-HOUR.




USA.gov is the U.S. government's official web portal to all federal, state and local government web resources and services.